Overview Statistics Trail Chart Weather Telemetry Raw packets
 

This is the latest recevied weather packets stored in our database for station/object OE3MHU-12. If no packets are shown the sender has not sent any weather packets the latest 10 day(s).

<< 10 11 12 13 14 15 16 >>
Time Temp. Humidity Pressure Rain* Wind** Luminosity Snow
1788043394 13.33° C 82% 1015.2 hPa 0 mm - - -
1788041595 13.89° C 81% 1015.2 hPa 0 mm - - -
1788039794 14.44° C 81% 1015.1 hPa 0 mm - - -
1788037994 15° C 79% 1015.2 hPa 0 mm - - -
1788036396 15.56° C 78% 1015.1 hPa 0 mm - - -
1788036194 15.56° C 78% 1015.1 hPa 0 mm - - -
1788034394 16.11° C 76% 1015.1 hPa 0 mm - - -
1788032595 16.67° C 74% 1015 hPa 0 mm - - -
1788025395 22.78° C 54% 1014.3 hPa 0 mm - - -
1788023599 23.89° C 49% 1014.2 hPa 0 mm - - -
1788023595 23.89° C 49% 1014.2 hPa 0 mm - - -
1788021800 25° C 47% 1014.2 hPa 0 mm - - -
1788018195 25.56° C 46% 1014.1 hPa 0 mm - - -
1788016395 26.11° C 44% 1014 hPa 0 mm - - -
1788014595 26.67° C 46% 1014.2 hPa 0 mm - - -
1788012796 26.67° C 44% 1014.3 hPa 0 mm - - -
1788009196 27.78° C 45% 1014.7 hPa 0 mm - - -
1788007396 27.78° C 45% 1014.6 hPa 0 mm - - -
1788003797 25.56° C 49% 1015 hPa 0 mm - - -
1788001996 23.89° C 53% 1015.2 hPa 0 mm - - -
1788000196 26.11° C 50% 1015.3 hPa 0 mm - - -
1787998396 23.33° C 58% 1015.5 hPa 0 mm - - -
1787994965 25° C 58% 1015.7 hPa 0 mm - - -
1787994797 25° C 58% 1015.7 hPa 0 mm - - -
1787992997 23.89° C 59% 1015.7 hPa 0 mm - - -

* Rain latest hour (hover to see other rain measurements)
** Current wind speed in m/s (hover to see current wind gust speed)